[[{"header":{"parameterUnit":"m.s-1","parameterCategory":1,"la1":30.2991,"la2":30.254,"lo1":-89.0895,"lo2":-89.0444,"dy":0.0017,"dx":0.0017,"nx":28,"ny":28,"refTime":"2025-03-01T03:00:00:Z","depth":0,"parameterNumber":2,"parameterNumberName":"U-component_of_WINDS"},"data":[0,0,0,0,0,0,0,0,0,0,0,0,0,0,0,0,0,0,0,0,0,0,0,0,0,0,0,0,0,0,0,0,0,0,0,0,0,0,0,0,0,0,0,0,0,0,0,0,0,0,0,0,0,0,0,0,0,0,-1.866,-1.866,0,-1.8666,-1.8666,-1.8666,-1.8588,-1.8586,-1.8584,-1.8582,-1.8592,-1.8595,-1.8597,0,0,0,0,0,0,0,0,0,0,0,0,0,-1.8583,-1.8585,-1.866,-1.866,-1.866,-1.8666,-1.8666,-1.8666,-1.8588,-1.8586,-1.8583,-1.8581,-1.8592,-1.8594,-1.8597,0,0,0,0,0,0,0,0,0,0,0,0,0,-1.8606,-1.8586,-1.866,-1.8622,-1.8618,-1.8666,-1.8666,-1.8666,-1.8589,-1.8586,-1.8582,-1.8579,-1.8591,-1.8594,-1.8597,-1.8684,0,0,-1.8608,-1.8609,0,0,0,0,0,0,0,0,-1.8605,-1.8609,-1.8627,-1.8624,-1.8621,-1.8623,-1.8643,-1.8672,-1.859,-1.86,-1.8582,-1.8578,-1.8605,-1.8607,-1.8616,-1.8684,-1.8684,-1.8608,-1.861,-1.8612,-1.8613,0,0,0,0,0,0,0,-1.8603,-1.8608,-1.8663,-1.8628,-1.8624,-1.8605,-1.8605,-1.8648,-1.8621,-1.8599,-1.8593,-1.8595,-1.8603,-1.8613,-1.8616,-1.8685,-1.8608,-1.8611,-1.8613,-1.8615,-1.8824,-1.8827,0,0,0,0,0,0,-1.8606,-1.8607,-1.8662,-1.8663,-1.8605,-1.8609,-1.8609,-1.8626,-1.862,-1.8616,-1.8598,-1.8591,-1.8608,-1.8612,-1.8616,-1.8717,-1.8612,-1.8615,-1.8617,-1.8821,-1.8825,-1.8829,0,0,0,0,0,0,-1.8605,-1.8612,-1.8662,-1.8633,-1.8638,-1.8614,-1.8633,-1.8627,-1.8637,-1.8619,-1.8614,-1.8613,-1.8606,-1.8611,-1.8667,-1.8716,-1.8617,-1.862,-1.8817,-1.8822,-1.8827,-1.8919,0,0,0,0,0,0,-1.8603,-1.8612,-1.8644,-1.8635,-1.864,-1.8713,-1.8636,-1.863,-1.8643,-1.8634,-1.8632,-1.8628,-1.8604,-1.8662,-1.867,-1.8719,-1.8622,-1.8812,-1.8819,-1.8825,-1.8912,-1.8927,-1.894,0,0,0,0,0,-1.8601,-1.867,-1.8646,-1.8653,-1.8679,-1.8716,-1.8719,-1.8688,-1.8647,-1.8679,-1.8668,-1.8628,-1.8709,-1.8669,-1.8677,-1.8728,-1.8809,-1.8817,-1.8825,-1.8906,-1.8924,-1.894,0,0,0,0,0,0,-1.8688,-1.8669,-1.8641,-1.871,-1.8715,-1.8702,-1.8742,-1.8709,-1.8727,-1.8718,-1.868,-1.8681,-1.8743,-1.8741,-1.8696,-1.8811,-1.8752,-1.8762,-1.881,-1.8828,-1.8842,-1.8842,-1.8625,0,0,0,0,0,-1.8714,-1.8744,-1.8726,-1.8789,-1.8792,-1.8767,-1.8782,-1.8757,-1.8762,-1.8764,-1.8756,-1.8763,-1.879,-1.8808,-1.8832,-1.891,-1.8909,-1.8949,-1.8963,-1.8975,-1.8985,-1.9027,-1.9045,-1.8854,-1.8854,-1.8854,0,0,-1.8771,-1.8764,-1.8786,-1.8806,-1.8807,-1.884,-1.8769,-1.8807,-1.8832,-1.877,-1.8822,-1.8817,-1.8822,-1.889,-1.892,-1.889,-1.9037,-1.8985,-1.8994,-1.8998,-1.9037,-1.9055,-1.9071,-1.886,-1.8859,-1.8858,0,0,-1.8891,-1.8888,-1.894,-1.8942,-1.8944,-1.8926,-1.8939,-1.8931,-1.8925,-1.8976,-1.8931,-1.896,-1.9006,-1.9012,-1.9021,-1.9142,-1.9107,-1.9151,-1.9225,-1.9267,-1.9282,-1.9295,-1.934,-1.9356,-1.916,-1.916,-1.916,0,-1.8961,-1.9008,-1.8971,-1.9012,-1.9023,-1.8966,-1.9019,-1.9023,-1.9034,-1.9043,-1.9009,-1.9066,-1.9065,-1.9134,-1.9163,-1.9172,-1.9186,-1.9152,-1.9282,-1.9295,-1.9307,-1.9349,-1.9366,-1.9165,-1.9165,-1.9164,-1.9164,0,-1.9095,-1.9128,-1.917,-1.918,-1.9195,-1.9242,-1.9213,-1.9233,-1.9207,-1.9194,-1.9247,-1.9244,-1.9266,-1.928,-1.9256,-1.9346,-1.9328,-1.9289,-1.9229,-1.9331,-1.937,-1.9386,-1.9173,-1.9171,-1.917,-1.9168,0,0,-1.9271,-1.9259,-1.9275,-1.9279,-1.9276,-1.9302,-1.9346,-1.9367,-1.9385,-1.9394,-1.9431,-1.9471,-1.9435,-1.9445,-1.9421,-1.9457,-1.9554,-1.9413,-1.9413,-1.9441,-1.9655,-1.9686,-1.9705,-1.953,-1.9533,-1.9535,-1.9655,0,-1.9389,-1.9463,-1.9431,-1.9509,-1.954,-1.9486,-1.9525,-1.9528,-1.9517,-1.9542,-1.9529,-1.9559,-1.9507,-1.9513,-1.9547,-1.9536,-1.9597,-1.9526,-1.9566,-1.9568,-1.9569,-1.9725,-1.9758,-1.9871,-1.967,-1.9672,-1.9674,0,-1.9536,-1.955,-1.9631,-1.9623,-1.9634,-1.967,-1.9686,-1.971,-1.9713,-1.9702,-1.9713,-1.968,-1.9724,-1.9663,-1.9724,-1.9677,-1.9691,-1.9688,-1.9692,-1.9696,-1.9629,-1.9735,-1.9906,-1.9924,-1.9698,-1.9696,-1.9694,0,-1.9659,-1.9697,-1.975,-1.9755,-1.9747,-1.9773,-1.9771,-1.977,-1.9785,-1.9799,-1.9808,-1.9827,-1.9839,-1.9855,-1.9829,-1.9787,-1.9895,-1.9831,-1.9888,-1.9889,-1.9915,-1.9914,-2.0092,-1.9921,-1.9921,-1.9921,-1.992,0,-1.9795,-1.9847,-1.9805,-1.9839,-1.9896,-1.9858,-1.9916,-1.9908,-1.9908,-1.9939,-1.9894,-1.9924,-1.9887,-1.9915,-1.9894,-1.9949,-1.9954,-1.9947,-1.9942,-1.9953,-1.9954,-1.9963,-1.9955,-1.9925,-1.9924,-1.9923,-1.9923,0,-1.9942,-1.9916,-1.9971,-1.9958,-1.9956,-1.9999,-1.9988,-2.0019,-2.0003,-2.0043,-2.0051,-2.0027,-2.0057,-2.0032,-2.0061,-2.0047,-2.012,-2.0102,-2.0119,-2.0115,-2.0174,-2.0169,-2.0366,-2.039,-2.0202,-2.0204,-2.0205,0,-2.0031,-2.007,-2.0061,-2.0078,-2.0078,-2.0106,-2.012,-2.0085,-2.0101,-2.0107,-2.0138,-2.0163,-2.0182,-2.0233,-2.0219,-2.0241,-2.0225,-2.0292,-2.0228,-2.0238,-2.0228,-2.0227,-2.0231,-2.0306,-2.0308,-2.031,-2.0312,0,-2.0193,-2.0178,-2.0199,-2.0216,-2.0234,-2.0246,-2.0254,-2.0271,-2.0235,-2.0256,-2.0285,-2.03,-2.0329,-2.0356,-2.0373,-2.0372,-2.0337,-2.0331,-2.0346,-2.0358,-2.0367,-2.0365,-2.0156,-2.0328,-2.0326,-2.0325,-2.0324,-2.0323,-2.0315,-2.0347,-2.0346,-2.0371,-2.0373,-2.0382,-2.041,-2.0397,-2.0421,-2.0441,-2.0418,-2.0455,-2.0457,-2.0476,-2.0479,-2.0508,-2.048,-2.0501,-2.0507,-2.0513,-2.0522,-2.0361,-2.0511,-2.051,-2.051,-2.0509,-2.0509,0,-2.0476,-2.0472,-2.0495,-2.0508,-2.0528,-2.049,-2.0498,-2.0517,-2.0549,-2.0553,-2.0572,-2.0607,-2.0632,-2.0619,-2.0642,-2.0667,-2.0652,-2.0675,-2.0673,-2.0674,-2.0545,-2.0531,-2.0687,-2.0687,-2.0687,-2.0687,-2.0687,-2.0687,-2.0562,-2.0615,-2.0599,-2.0653,-2.0648,-2.0682,-2.069,-2.0698,-2.0701,-2.0741,-2.0761,-2.0752,-2.075,-2.0772,-2.0794,-2.0789,-2.0801,-2.083,-2.082,-2.07,-2.0683,-2.0666,-2.0653,-2.0832,-2.0832,-2.0947,-2.0948,-2.0949]},{"header":{"parameterUnit":"m.s-1","parameterCategory":1,"la1":30.2991,"la2":30.254,"lo1":-89.0895,"lo2":-89.0444,"dy":0.0017,"dx":0.0017,"nx":28,"ny":28,"refTime":"2025-03-01T03:00:00:Z","depth":0,"parameterNumber":3,"parameterNumberName":"V-component_of_WINDS"},"data":[0,0,0,0,0,0,0,0,0,0,0,0,0,0,0,0,0,0,0,0,0,0,0,0,0,0,0,0,0,0,0,0,0,0,0,0,0,0,0,0,0,0,0,0,0,0,0,0,0,0,0,0,0,0,0,0,0,0,0.4107,0.4105,0,0.3929,0.3927,0.3925,0.3823,0.3823,0.3822,0.3822,0.3635,0.3631,0.3626,0,0,0,0,0,0,0,0,0,0,0,0,0,0.4357,0.4353,0.4108,0.4105,0.4103,0.3929,0.3927,0.3924,0.3823,0.3823,0.3822,0.3822,0.3637,0.3632,0.3626,0,0,0,0,0,0,0,0,0,0,0,0,0,0.4221,0.4352,0.4108,0.4032,0.4023,0.393,0.3927,0.3924,0.3823,0.3823,0.3822,0.3822,0.3639,0.3632,0.3625,0.3593,0,0,0.3604,0.3601,0,0,0,0,0,0,0,0,0.4229,0.4212,0.4045,0.4037,0.4027,0.3898,0.3946,0.3813,0.3823,0.3899,0.3822,0.3821,0.3723,0.3709,0.3677,0.3584,0.3576,0.3603,0.3599,0.3596,0.3594,0,0,0,0,0,0,0,0.4238,0.4219,0.4037,0.4043,0.4032,0.4005,0.3985,0.3921,0.3816,0.3892,0.3885,0.3865,0.3718,0.3684,0.3671,0.3573,0.3603,0.3597,0.3593,0.359,0.3445,0.3445,0,0,0,0,0,0,0.426,0.4227,0.4042,0.4031,0.4129,0.4001,0.3979,0.394,0.3816,0.3797,0.3866,0.3861,0.3696,0.368,0.3665,0.3618,0.3596,0.359,0.3586,0.3445,0.3445,0.3445,0,0,0,0,0,0,0.4266,0.4245,0.405,0.4127,0.41,0.3998,0.3954,0.3936,0.3902,0.3796,0.3777,0.385,0.3695,0.3674,0.3612,0.361,0.3586,0.358,0.3444,0.3445,0.3445,0.3525,0,0,0,0,0,0,0.4274,0.4248,0.4235,0.4128,0.4097,0.4001,0.3954,0.3933,0.3891,0.3883,0.3776,0.3758,0.3693,0.3623,0.3605,0.36,0.3575,0.3444,0.3444,0.3445,0.3522,0.3529,0.3534,0,0,0,0,0,0.4283,0.4264,0.4235,0.4213,0.4079,0.4001,0.3983,0.3909,0.3891,0.3877,0.3809,0.3762,0.3614,0.3617,0.3596,0.3589,0.3444,0.3444,0.3445,0.352,0.3527,0.3534,0,0,0,0,0,0,0.4371,0.4248,0.4215,0.416,0.4092,0.3984,0.3964,0.3919,0.3854,0.3849,0.3759,0.3736,0.3682,0.3629,0.3635,0.3551,0.3523,0.352,0.3588,0.3594,0.36,0.3613,0.3569,0,0,0,0,0,0.4385,0.4333,0.4228,0.419,0.4158,0.4067,0.403,0.398,0.3905,0.3875,0.3802,0.373,0.3668,0.3628,0.3564,0.3515,0.349,0.35,0.3506,0.3511,0.3509,0.3478,0.3482,0.3448,0.3448,0.3448,0,0,0.4411,0.4338,0.431,0.4206,0.4147,0.4094,0.4043,0.3989,0.3949,0.3866,0.3803,0.3747,0.3661,0.3605,0.3577,0.356,0.3513,0.3512,0.3517,0.3511,0.348,0.3483,0.3486,0.3448,0.3448,0.3448,0,0,0.4433,0.4372,0.4334,0.4277,0.4189,0.4129,0.4121,0.4019,0.398,0.3915,0.3852,0.3802,0.3696,0.3637,0.3594,0.3595,0.3548,0.3577,0.3606,0.3578,0.358,0.3582,0.3582,0.3583,0.3575,0.3575,0.3575,0,0.4476,0.4396,0.432,0.427,0.4226,0.415,0.411,0.4058,0.3954,0.3924,0.3907,0.3773,0.371,0.3639,0.364,0.3607,0.3593,0.3588,0.3587,0.3588,0.3588,0.3587,0.3587,0.3579,0.3579,0.3578,0.3578,0,0.4453,0.4399,0.4378,0.4281,0.4235,0.419,0.4107,0.4069,0.4023,0.3965,0.39,0.3822,0.3741,0.3721,0.3674,0.3643,0.3635,0.3604,0.3573,0.3597,0.3594,0.3593,0.3585,0.3583,0.3582,0.3581,0,0,0.4523,0.4387,0.438,0.4335,0.4234,0.4189,0.4142,0.4064,0.4033,0.3964,0.3921,0.3834,0.3805,0.3755,0.3702,0.3677,0.3683,0.3648,0.3645,0.3657,0.3643,0.3667,0.3668,0.3652,0.3652,0.3652,0.365,0,0.4529,0.4441,0.4372,0.4309,0.4257,0.4186,0.4144,0.4077,0.4022,0.3969,0.3907,0.3847,0.3813,0.3783,0.3755,0.3688,0.3679,0.3688,0.361,0.3608,0.3633,0.3666,0.3691,0.3693,0.3649,0.3649,0.3648,0,0.4524,0.4459,0.4392,0.4297,0.4273,0.4237,0.4161,0.4112,0.4034,0.3995,0.3942,0.3887,0.3832,0.3809,0.3732,0.374,0.3704,0.3667,0.3665,0.3653,0.3629,0.3655,0.3692,0.3693,0.3646,0.3646,0.3646,0,0.4581,0.4477,0.4424,0.4388,0.4275,0.4252,0.4204,0.4126,0.4084,0.4017,0.3989,0.3917,0.3877,0.3822,0.3748,0.3738,0.3679,0.365,0.3645,0.3647,0.3634,0.3635,0.3665,0.3614,0.3614,0.3614,0.3614,0,0.4594,0.4555,0.4448,0.4415,0.437,0.4291,0.4248,0.4193,0.4125,0.4079,0.4013,0.3971,0.3878,0.3825,0.3767,0.3712,0.3694,0.3661,0.3646,0.3666,0.367,0.3641,0.3638,0.3614,0.3614,0.3614,0.3614,0,0.4649,0.4576,0.4512,0.4412,0.4386,0.4357,0.4271,0.4236,0.4178,0.4121,0.4103,0.4012,0.3946,0.3868,0.3776,0.3738,0.3687,0.3665,0.3714,0.3705,0.3704,0.3705,0.3714,0.3711,0.3664,0.3665,0.3665,0,0.4661,0.463,0.4528,0.4493,0.4448,0.4393,0.4351,0.4272,0.423,0.4141,0.4116,0.4046,0.3985,0.3883,0.3808,0.3737,0.3713,0.3721,0.3701,0.3723,0.3712,0.3714,0.371,0.3726,0.3727,0.3727,0.3728,0,0.4691,0.4657,0.4599,0.4529,0.4481,0.4422,0.4359,0.4335,0.4243,0.42,0.4133,0.4086,0.3994,0.3924,0.3845,0.3794,0.3745,0.3735,0.373,0.375,0.3779,0.3762,0.3727,0.3735,0.3734,0.3734,0.3733,0.3733,0.4724,0.4694,0.4617,0.4555,0.4501,0.4444,0.4407,0.4345,0.4288,0.4208,0.4165,0.4099,0.4022,0.3911,0.3862,0.3808,0.3791,0.3784,0.3782,0.3781,0.3787,0.3789,0.3793,0.3793,0.3792,0.3792,0.3792,0,0.475,0.4698,0.4642,0.4558,0.4509,0.4471,0.44,0.4361,0.4305,0.4238,0.418,0.4103,0.4036,0.3957,0.3884,0.3856,0.3832,0.384,0.384,0.3829,0.3806,0.3818,0.386,0.386,0.386,0.386,0.386,0.386,0.4758,0.4704,0.4661,0.4579,0.4527,0.4463,0.4426,0.4373,0.432,0.4237,0.4182,0.4131,0.4059,0.3981,0.3917,0.3895,0.3871,0.3885,0.3857,0.3837,0.3831,0.3825,0.3835,0.3881,0.3881,0.3884,0.3884,0.3884]}]]